Find Starlink 11654

NORAD ID: 63265 Int'l Des: 2025-053 Owner: SPXS Country: US Constellation: starlink operational
LEOCIRCULAR

現在のビュー

3D地球を読み込み中...

About Starlink 11654

Starlink 11654 (NORAD 63265) is a starlink constellation satellite (v2 mini d2c) launched Mar 15, 2025 by SPXS of US. It operates in LEO, CIRCULAR orbit with a mass of 960.00 kg.

Starlink 11654について

説明を読み込み中...

次回通過

Passes for default location (London). Set your location on the main map for personalized predictions.

高度履歴

Loading altitude history...

軌道要素

1 63265U 25053A 26195.37124486 .00262825 00000-0 19806-2 0 9996
2 63265 42.9970 68.5977 0001856 43.1895 316.9118 15.70924546 77597
Epoch: Jul 14, 2026 • Age: 13 hours

現在のステータス

高度 356.4 km
遠地点 / 近地点 N/A
速度 7.70 km/s
衛星直下点 33.16°N, 56.34°W
打ち上げ日 Mar 15, 2025
運用期間 1.3 years
タイプ internet

技術仕様

分類 Payload
質量 960.00 kg
乾燥質量 910.00 kg
総質量 960.00 kg
長さ 0.30 m
直径 4.10 m
スパン 29.00 m
形状 Box + pan
製造者 SPXS
バスタイプ Starlink V2MD
フェーズステータス In Orbit
所有者/国 SPXS/US

Most Searched